Regional Weather Roundup
Issued by NWS

Home | Current Version | Previous Version | Graphics & Text | Print | Product List | Glossary On
Versions: 1 2 3 4 5 6 7 8 9 10 11 12 13 14 15 16 17 18 19 20 21 22 23 24 25 26 27 28 29 30 31 32 33 34 35 36 37 38 39 40 41 42 43 44 45 46 47 48 49 50
191
ASUS45 KBOU 041607
RWRCO

WEATHER ROUNDUP FOR COLORADO
NATIONAL WEATHER SERVICE DENVER/BOULDER CO
900 AM MST SUN DEC 04 2016

NOTE: "FAIR" INDICATES FEW OR NO CLOUDS BELOW 12000 FEET WITH NO
SIGNIFICANT WEATHER AND/OR OBSTRUCTIONS TO VISIBILITY.

COZ001>005-013-030-031-041700-
...NORTHWEST COLORADO...

CITY           SKY/WX    TMP DP  RH WIND       PRES   REMARKS
CRAIG          FAIR      16  11  80 CALM      30.17F
HAYDEN         CLOUDY    16   9  73 E16       30.15S WCI   0
MEEKER         FAIR      14   9  80 CALM      30.19F
MOUNT WERNER   NOT AVBL
STEAMBOAT SPGS PTSUNNY   10   7  87 CALM      30.17R
WALDEN           N/A     23   7  50 S14       30.06F WCI  11
$$

COZ006>008-011-041700-
...WEST CENTRAL VALLEYS...

CITY           SKY/WX    TMP DP  RH WIND       PRES   REMARKS
GRAND JUNCTION FAIR      25  16  68 S3        30.25R
MONTROSE       FAIR      21  11  65 SE7       30.27S WCI  12
EAGLE          SUNNY     12   3  67 CALM      30.27S
RIFLE          FAIR      18  12  77 CALM      30.27S
DELTA          NOT AVBL
NUCLA          FAIR      21   9  58 SE5       30.27R WCI  15
$$

COZ017>023-064>068-041700-
...SOUTHWEST COLORADO...

CITY           SKY/WX    TMP DP  RH WIND       PRES   REMARKS
DURANGO        PTSUNNY   21  19  92 S3        30.19S FOG
CORTEZ         FAIR      23  14  68 E3        30.21R
PAGOSA SPRINGS FAIR     N/A N/A N/A S5        30.19S
TELLURIDE      FAIR      22   6  50 CALM      30.20R
WOLF CREEK PAS FAIR      23   1  39 NW3       30.21S
$$

COZ009-010-012-014-032>034-037-058>063-041700-
...CENTRAL COLORADO...

CITY           SKY/WX    TMP DP  RH WIND       PRES   REMARKS
ASPEN          FAIR      14   5  67 N6        30.17R WCI   5
BUENA VISTA    FAIR      18   2  50 CALM      30.11R
COPPER MTN     FAIR      19   1  45 MISG      30.10R
BERTHOUD PASS  FAIR       7  -6  56 NW29G46   30.01R WCI -16
COTTONWOOD PAS FAIR      30  -2  24 N5        30.08R WCI  25
GUNNISON       FAIR       5  -1  76 CALM      30.28R
KREMMLING      FAIR      14   9  79 CALM      30.21R
LEADVILLE      FAIR      19  -6  33 VRB5      30.11R WCI  12
SALIDA         FAIR      30   4  32 NW8       30.18R WCI  23
SUNLIGHT       FAIR      12   9  85 SW10      30.18R WCI  -1
WILKERSON PASS FAIR      19  -4  35 NW8       30.08R WCI   9
$$

COZ069>075-041700-
...SAN LUIS VALLEY/SANGRE DE CRISTO MOUNTAINS...

CITY           SKY/WX    TMP DP  RH WIND       PRES   REMARKS
ALAMOSA        FAIR       9   5  84 CALM      30.19R
LA VETA PASS   FAIR      16   5  62 NE28G35   30.09R WCI  -4
SAGUACHE       FAIR      21   7  53 CALM      30.19R
$$

COZ035-036-038>040-041700-
...NORTHERN COLORADO FRONT RANGE...

CITY           SKY/WX    TMP DP  RH WIND       PRES   REMARKS
DENVER INTL AP FAIR      33  12  41 S13       29.99S WCI  24
DMNS CITY PARK   N/A     33   3  28 S6G12     30.00S WCI  27
AURORA         MOSUNNY   32   8  36 S10       29.99F WCI  23
FRONT RANGE AP NOT AVBL
ERIE MUNI ARPT FAIR      24  13  64 N6        30.00R WCI  17
BOULDER MUN AP FAIR      30  10  43 N5        29.99S WCI  25
CENTENNIAL     FAIR      34   5  29 S7        29.99S WCI  28
BROOMFIELD     MOSUNNY   41   1  19 SW6       29.99S
FORT COLLINS   FAIR      23  16  74 NE3       30.01S
LONGMONT       FAIR      29  16  58 E3        30.01F
$$

COZ041-046-047-076>085-087-088-041700-
...PIKES PEAK/PALMER DIVIDE AND SOUTHERN FOOTHILLS...

CITY           SKY/WX    TMP DP  RH WIND       PRES   REMARKS
COLO. SPRINGS  FAIR      32  14  47 NE3       30.04F
A. F. ACADEMY  FAIR      25  12  58 N5        30.02F WCI  19
SCHRIEVER AFB  NOT AVBL
ELLICOTT       LGT RAIN N/A N/A N/A CALM      30.02
FALCON         FAIR      30  12  48 CALM      30.03F
FORT CARSON    FAIR      30  11  45 NE5       30.03F WCI  25
LIMON          FAIR      29  19  66 CALM      30.04F
MONUMENT HILL  FAIR      32   7  34 SW9       30.02R WCI  24
TRINIDAD       FAIR      29  13  51 NW7       30.09R WCI  22
$$

COZ042>045-048>051-090-091-041700-
...NORTHEAST COLORADO...

CITY           SKY/WX    TMP DP  RH WIND       PRES   REMARKS
GREELEY ARPT   FAIR      22  16  78 SE3       30.03S
AKRON          FAIR      32  12  43 SW8       30.02F WCI  25
BURLINGTON     FAIR      34  17  50 W12       30.08R WCI  25
WRAY           NOT AVBL
STERLING       FAIR      27  16  63 SW9       30.03S WCI  17
HOLYOKE        FAIR      36  19  51 W8        30.03S
FORT MORGAN    FAIR      25  15  66 S6        30.05R WCI  18
$$

COZ086-089-092>099-041700-
...SOUTHEAST COLORADO...

CITY           SKY/WX    TMP DP  RH WIND       PRES   REMARKS
PUEBLO         FAIR      24  14  65 SW6       30.08F WCI  17
LA JUNTA       FAIR      26  18  71 W6        30.11S WCI  19
LAMAR          FAIR      27  22  81 W9        30.11S WCI  18
SPRINGFIELD      N/A     34  30  85 CALM      30.11R
$$




USA.gov is the U.S. government's official web portal to all federal, state and local government web resources and services.